DAL9133 MMUN-KEYW

Flight info

Callsign DAL9133
Flight time 1h 6m
Altitude 33000
Route CUN3A CUN UM219 XOPGI UB646 CANOA
Aircraft B738/M-SDE2E3FGHIRWXY/LB1

Departure

Time 2026-05-06 21:52
Airport Cancún International Airport (MMUN)

Arrival

Time 2026-05-06 22:59
Airport Key West International Airport (KEYW)
Time Latitude Longitude Altitude Speed Heading
2026-05-06 21:27 21.03635 -86.86759 39 ft 0 kts 304°
2026-05-06 21:42 21.03627 -86.86747 39 ft 2 kts 303°
2026-05-06 21:42 21.03619 -86.86734 40 ft 2 kts 304°
2026-05-06 21:42 21.03613 -86.86725 40 ft 2 kts 303°
2026-05-06 21:43 21.03605 -86.86712 40 ft 1 kts 304°
2026-05-06 21:43 21.03599 -86.86703 40 ft 2 kts 296°
2026-05-06 21:43 21.03596 -86.86688 41 ft 2 kts 267°
2026-05-06 21:43 21.03599 -86.86672 41 ft 2 kts 243°
2026-05-06 21:44 21.03608 -86.86660 41 ft 1 kts 219°
2026-05-06 21:44 21.03613 -86.86656 41 ft 1 kts 212°
2026-05-06 21:44 21.03615 -86.86655 41 ft 0 kts 213°
2026-05-06 21:45 21.03614 -86.86656 41 ft 0 kts 213°
2026-05-06 21:46 21.03592 -86.86671 41 ft 6 kts 214°
2026-05-06 21:46 21.03539 -86.86708 40 ft 12 kts 213°
2026-05-06 21:46 21.03451 -86.86770 38 ft 16 kts 212°
2026-05-06 21:46 21.03358 -86.86854 34 ft 18 kts 246°
2026-05-06 21:47 21.03401 -86.86983 33 ft 19 kts 302°
2026-05-06 21:47 21.03476 -86.87099 32 ft 19 kts 304°
2026-05-06 21:47 21.03556 -86.87229 31 ft 23 kts 303°
2026-05-06 21:47 21.03653 -86.87382 28 ft 25 kts 303°
2026-05-06 21:48 21.03740 -86.87523 25 ft 20 kts 302°
2026-05-06 21:48 21.03817 -86.87644 26 ft 19 kts 305°
2026-05-06 21:48 21.03888 -86.87758 25 ft 17 kts 303°
2026-05-06 21:48 21.03953 -86.87865 26 ft 16 kts 303°
2026-05-06 21:49 21.04017 -86.87968 26 ft 16 kts 303°
2026-05-06 21:49 21.04079 -86.88070 27 ft 15 kts 303°
2026-05-06 21:49 21.04150 -86.88181 29 ft 20 kts 303°
2026-05-06 21:49 21.04233 -86.88315 32 ft 23 kts 309°
2026-05-06 21:50 21.04325 -86.88454 33 ft 21 kts 303°
2026-05-06 21:50 21.04403 -86.88582 36 ft 19 kts 302°
2026-05-06 21:50 21.04470 -86.88697 36 ft 17 kts 302°
2026-05-06 21:50 21.04533 -86.88806 36 ft 16 kts 301°
2026-05-06 21:51 21.04605 -86.88902 36 ft 15 kts 310°
2026-05-06 21:51 21.04631 -86.88998 37 ft 13 kts 249°
2026-05-06 21:51 21.04561 -86.89061 36 ft 13 kts 210°
2026-05-06 21:51 21.04491 -86.89034 34 ft 9 kts 122°
2026-05-06 21:52 21.04482 -86.89018 34 ft 9 kts 123°
2026-05-06 21:52 21.04277 -86.88691 35 ft 94 kts 123°
2026-05-06 21:52 21.03768 -86.87879 32 ft 164 kts 124°
2026-05-06 21:52 21.03139 -86.86798 702 ft 174 kts 120°
2026-05-06 21:53 21.02685 -86.85611 1575 ft 183 kts 97°
2026-05-06 21:53 21.02849 -86.84248 2224 ft 198 kts 80°
2026-05-06 21:53 21.02831 -86.82719 2623 ft 218 kts 114°
2026-05-06 21:53 21.01848 -86.81432 3148 ft 238 kts 147°
2026-05-06 21:54 21.00374 -86.80567 3969 ft 245 kts 147°
2026-05-06 21:54 20.99016 -86.79465 4847 ft 249 kts 134°
2026-05-06 21:54 20.97736 -86.78218 5736 ft 254 kts 142°
2026-05-06 21:54 20.96180 -86.77303 6565 ft 261 kts 157°
2026-05-06 21:55 20.94405 -86.76805 7395 ft 268 kts 169°
2026-05-06 21:55 20.92504 -86.76866 8120 ft 281 kts 191°
2026-05-06 21:55 20.90680 -86.77688 8867 ft 292 kts 210°
2026-05-06 21:55 20.89103 -86.79089 9625 ft 300 kts 227°
2026-05-06 21:56 20.87985 -86.80975 10354 ft 306 kts 250°
2026-05-06 21:56 20.87635 -86.83214 11123 ft 308 kts 273°
2026-05-06 21:56 20.87962 -86.85455 11921 ft 307 kts 289°
2026-05-06 21:56 20.88897 -86.87485 12641 ft 306 kts 311°
2026-05-06 21:57 20.90492 -86.88940 13368 ft 301 kts 334°
2026-05-06 21:57 20.92438 -86.89766 14046 ft 301 kts 349°
2026-05-06 21:57 20.94510 -86.89991 14698 ft 300 kts
2026-05-06 21:57 20.96476 -86.89355 15404 ft 296 kts 28°
2026-05-06 21:58 20.98292 -86.88323 16076 ft 298 kts 31°
2026-05-06 21:58 21.00123 -86.87249 16731 ft 301 kts 31°
2026-05-06 21:58 21.01996 -86.86235 17369 ft 305 kts 26°
2026-05-06 21:58 21.04026 -86.85465 17916 ft 312 kts 18°
2026-05-06 21:59 21.06163 -86.84921 18505 ft 317 kts 14°
2026-05-06 21:59 21.08344 -86.84461 19109 ft 320 kts 13°
2026-05-06 21:59 21.10554 -86.84003 19645 ft 325 kts 14°
2026-05-06 21:59 21.12774 -86.83524 20218 ft 328 kts 14°
2026-05-06 22:00 21.15026 -86.83024 20739 ft 332 kts 14°
2026-05-06 22:00 21.17300 -86.82510 21268 ft 336 kts 14°
2026-05-06 22:00 21.19601 -86.81987 21758 ft 340 kts 14°
2026-05-06 22:00 21.21935 -86.81456 22268 ft 343 kts 13°
2026-05-06 22:01 21.24288 -86.80922 22783 ft 346 kts 13°
2026-05-06 22:01 21.26662 -86.80382 23270 ft 350 kts 13°
2026-05-06 22:01 21.29054 -86.79838 23757 ft 353 kts 13°
2026-05-06 22:01 21.31475 -86.79287 24243 ft 355 kts 13°
2026-05-06 22:02 21.33922 -86.78730 24695 ft 359 kts 13°
2026-05-06 22:02 21.36383 -86.78168 25154 ft 362 kts 12°
2026-05-06 22:02 21.38854 -86.77601 25613 ft 364 kts 12°
2026-05-06 22:02 21.41345 -86.77031 26053 ft 366 kts 12°
2026-05-06 22:03 21.43851 -86.76461 26461 ft 370 kts 12°
2026-05-06 22:03 21.46379 -86.75886 26917 ft 371 kts 11°
2026-05-06 22:03 21.48925 -86.75305 27285 ft 375 kts 11°
2026-05-06 22:03 21.51496 -86.74718 27710 ft 377 kts 11°
2026-05-06 22:04 21.54073 -86.74129 28111 ft 379 kts 11°
2026-05-06 22:04 21.56668 -86.73536 28458 ft 382 kts 11°
2026-05-06 22:04 21.59280 -86.72937 28858 ft 384 kts 11°
2026-05-06 22:04 21.61903 -86.72335 29218 ft 386 kts 10°
2026-05-06 22:05 21.64552 -86.71727 29600 ft 388 kts 11°
2026-05-06 22:05 21.67206 -86.71117 29962 ft 390 kts 10°
2026-05-06 22:05 21.69870 -86.70505 30308 ft 392 kts 10°
2026-05-06 22:05 21.72546 -86.69890 30656 ft 394 kts 10°
2026-05-06 22:06 21.75233 -86.69272 30994 ft 396 kts 10°
2026-05-06 22:06 21.77930 -86.68652 31343 ft 397 kts 10°
2026-05-06 22:06 21.80645 -86.68028 31671 ft 399 kts 10°
2026-05-06 22:06 21.83365 -86.67404 31968 ft 401 kts 10°
2026-05-06 22:07 21.86108 -86.66775 32293 ft 402 kts 10°
2026-05-06 22:07 21.88849 -86.66145 32677 ft 402 kts 10°
2026-05-06 22:07 21.91600 -86.65514 32882 ft 406 kts 10°
2026-05-06 22:07 21.94383 -86.64875 32948 ft 410 kts 10°
2026-05-06 22:08 21.99945 -86.63592 32952 ft 407 kts 10°
2026-05-06 22:08 22.05581 -86.62294 32960 ft 421 kts 10°
2026-05-06 22:09 22.11417 -86.60951 32952 ft 432 kts
2026-05-06 22:09 22.17293 -86.59592 32948 ft 429 kts
2026-05-06 22:10 22.23128 -86.58242 32951 ft 429 kts
2026-05-06 22:10 22.28977 -86.56890 32952 ft 430 kts
2026-05-06 22:11 22.34686 -86.54926 32953 ft 433 kts 24°
2026-05-06 22:11 22.37250 -86.53202 32955 ft 437 kts 36°
2026-05-06 22:11 22.38455 -86.52117 32957 ft 438 kts 40°
2026-05-06 22:12 22.41215 -86.48920 32961 ft 441 kts 50°
2026-05-06 22:13 22.44464 -86.43283 32964 ft 444 kts 61°
2026-05-06 22:13 22.47099 -86.37255 32968 ft 444 kts 64°
2026-05-06 22:14 22.49640 -86.31181 32967 ft 445 kts 64°
2026-05-06 22:14 22.52224 -86.25087 32970 ft 447 kts 64°
2026-05-06 22:15 22.54836 -86.19023 32969 ft 445 kts 63°
2026-05-06 22:15 22.57465 -86.12971 32965 ft 445 kts 63°
2026-05-06 22:16 22.60099 -86.06922 32965 ft 445 kts 63°
2026-05-06 22:16 22.62733 -86.00875 32965 ft 446 kts 63°
2026-05-06 22:17 22.65471 -85.94858 32967 ft 446 kts 61°
2026-05-06 22:17 22.68343 -85.88924 32968 ft 446 kts 60°
2026-05-06 22:18 22.71227 -85.82993 32968 ft 445 kts 60°
2026-05-06 22:18 22.74086 -85.77069 32972 ft 444 kts 60°
2026-05-06 22:19 22.76934 -85.71133 32972 ft 445 kts 60°
2026-05-06 22:19 22.79778 -85.65185 32973 ft 446 kts 60°
2026-05-06 22:20 22.82613 -85.59238 32974 ft 445 kts 60°
2026-05-06 22:20 22.85456 -85.53270 32976 ft 446 kts 60°
2026-05-06 22:21 22.88295 -85.47303 32976 ft 446 kts 60°
2026-05-06 22:21 22.91130 -85.41339 32978 ft 446 kts 60°
2026-05-06 22:22 22.93964 -85.35367 32978 ft 446 kts 60°
2026-05-06 22:22 22.96801 -85.29385 32981 ft 447 kts 61°
2026-05-06 22:23 22.99637 -85.23400 32981 ft 447 kts 60°
2026-05-06 22:23 23.02470 -85.17410 32983 ft 446 kts 60°
2026-05-06 22:24 23.05299 -85.11421 32989 ft 447 kts 60°
2026-05-06 22:24 23.08127 -85.05430 32986 ft 447 kts 60°
2026-05-06 22:25 23.10961 -84.99419 32986 ft 447 kts 60°
2026-05-06 22:25 23.13792 -84.93405 32990 ft 449 kts 60°
2026-05-06 22:26 23.16625 -84.87379 32990 ft 448 kts 60°
2026-05-06 22:26 23.19448 -84.81366 32989 ft 447 kts 60°
2026-05-06 22:27 23.22271 -84.75344 32990 ft 448 kts 60°
2026-05-06 22:27 23.25078 -84.69310 32989 ft 447 kts 60°
2026-05-06 22:28 23.27869 -84.63283 32990 ft 448 kts 60°
2026-05-06 22:28 23.30667 -84.57236 32990 ft 448 kts 60°
2026-05-06 22:29 23.33463 -84.51190 32990 ft 448 kts 60°
2026-05-06 22:29 23.36256 -84.45140 32989 ft 449 kts 60°
2026-05-06 22:30 23.39046 -84.39086 32989 ft 448 kts 60°
2026-05-06 22:30 23.41838 -84.33027 32988 ft 448 kts 60°
2026-05-06 22:31 23.44619 -84.26985 32989 ft 448 kts 60°
2026-05-06 22:31 23.47401 -84.20932 32989 ft 448 kts 60°
2026-05-06 22:32 23.50184 -84.14871 32989 ft 449 kts 60°
2026-05-06 22:32 23.52965 -84.08806 32989 ft 449 kts 60°
2026-05-06 22:33 23.55746 -84.02735 32987 ft 449 kts 60°
2026-05-06 22:33 23.58524 -83.96660 32989 ft 448 kts 60°
2026-05-06 22:34 23.61297 -83.90587 32994 ft 449 kts 60°
2026-05-06 22:34 23.64070 -83.84509 32990 ft 448 kts 60°
2026-05-06 22:35 23.66838 -83.78432 32990 ft 448 kts 60°
2026-05-06 22:35 23.69607 -83.72349 32995 ft 449 kts 60°
2026-05-06 22:36 23.72376 -83.66258 32998 ft 449 kts 60°
2026-05-06 22:36 23.75140 -83.60170 32994 ft 449 kts 60°
2026-05-06 22:37 23.76539 -83.57091 32842 ft 460 kts 60°
2026-05-06 22:37 23.77981 -83.53922 32587 ft 471 kts 60°
2026-05-06 22:37 23.79447 -83.50697 32329 ft 476 kts 60°
2026-05-06 22:37 23.80907 -83.47472 32073 ft 474 kts 60°
2026-05-06 22:38 23.82358 -83.44260 31816 ft 470 kts 60°
2026-05-06 22:38 23.83795 -83.41074 31559 ft 467 kts 60°
2026-05-06 22:38 23.85219 -83.37914 31188 ft 462 kts 60°
2026-05-06 22:38 23.86628 -83.34786 30658 ft 459 kts 60°
2026-05-06 22:39 23.88029 -83.31677 30054 ft 457 kts 60°
2026-05-06 22:39 23.89432 -83.28565 29441 ft 456 kts 61°
2026-05-06 22:39 23.90826 -83.25473 28812 ft 454 kts 61°
2026-05-06 22:39 23.92212 -83.22393 28176 ft 453 kts 61°
2026-05-06 22:40 23.93596 -83.19317 27532 ft 451 kts 61°
2026-05-06 22:40 23.94973 -83.16255 26900 ft 449 kts 61°
2026-05-06 22:40 23.96345 -83.13201 26272 ft 447 kts 62°
2026-05-06 22:40 23.97705 -83.10172 25628 ft 444 kts 62°
2026-05-06 22:41 24.00353 -83.04280 24421 ft 422 kts 60°
2026-05-06 22:41 24.01700 -83.01486 23823 ft 412 kts 59°
2026-05-06 22:41 24.03083 -82.98790 23237 ft 402 kts 58°
2026-05-06 22:42 24.04459 -82.96178 22663 ft 393 kts 58°
2026-05-06 22:42 24.05814 -82.93622 22105 ft 384 kts 58°
2026-05-06 22:42 24.07128 -82.91135 21560 ft 375 kts 58°
2026-05-06 22:42 24.08412 -82.88690 21019 ft 367 kts 58°
2026-05-06 22:43 24.09659 -82.86300 20493 ft 359 kts 58°
2026-05-06 22:43 24.10878 -82.83952 19989 ft 351 kts 58°
2026-05-06 22:43 24.12066 -82.81655 19482 ft 345 kts 58°
2026-05-06 22:43 24.13250 -82.79364 18987 ft 349 kts 58°
2026-05-06 22:44 24.14464 -82.77017 18465 ft 360 kts 58°
2026-05-06 22:44 24.15697 -82.74628 17915 ft 360 kts 58°
2026-05-06 22:44 24.16910 -82.72267 17343 ft 353 kts 58°
2026-05-06 22:44 24.18094 -82.69957 16835 ft 344 kts 58°
2026-05-06 22:45 24.19251 -82.67698 16325 ft 336 kts 59°
2026-05-06 22:45 24.20378 -82.65498 15826 ft 329 kts 59°
2026-05-06 22:45 24.21484 -82.63342 15338 ft 321 kts 59°
2026-05-06 22:45 24.22560 -82.61243 14862 ft 314 kts 59°
2026-05-06 22:46 24.23612 -82.59190 14393 ft 307 kts 59°
2026-05-06 22:46 24.24657 -82.57154 13946 ft 309 kts 59°
2026-05-06 22:46 24.25724 -82.55075 13472 ft 319 kts 59°
2026-05-06 22:46 24.26812 -82.52955 12984 ft 319 kts 59°
2026-05-06 22:47 24.27884 -82.50861 12499 ft 311 kts 59°
2026-05-06 22:47 24.28923 -82.48828 12028 ft 303 kts 59°
2026-05-06 22:47 24.29938 -82.46840 11566 ft 295 kts 59°
2026-05-06 22:47 24.30937 -82.44886 11127 ft 294 kts 59°
2026-05-06 22:48 24.31954 -82.42900 10684 ft 306 kts 59°
2026-05-06 22:48 24.33002 -82.40850 10345 ft 306 kts 59°
2026-05-06 22:48 24.34011 -82.38872 10190 ft 287 kts 59°
2026-05-06 22:48 24.34952 -82.37024 10091 ft 269 kts 59°
2026-05-06 22:49 24.35842 -82.35276 9854 ft 257 kts 59°
2026-05-06 22:49 24.36707 -82.33579 9504 ft 252 kts 60°
2026-05-06 22:49 24.37554 -82.31918 9193 ft 250 kts 60°
2026-05-06 22:49 24.38426 -82.30210 8892 ft 266 kts 60°
2026-05-06 22:50 24.39352 -82.28396 8488 ft 276 kts 60°
2026-05-06 22:50 24.40284 -82.26568 8149 ft 274 kts 60°
2026-05-06 22:50 24.41210 -82.24749 7809 ft 272 kts 61°
2026-05-06 22:50 24.42129 -82.22942 7468 ft 271 kts 61°
2026-05-06 22:51 24.43044 -82.21144 7119 ft 270 kts 61°
2026-05-06 22:51 24.43956 -82.19351 6781 ft 269 kts 61°
2026-05-06 22:51 24.44865 -82.17562 6443 ft 268 kts 61°
2026-05-06 22:51 24.45754 -82.15813 6120 ft 257 kts 62°
2026-05-06 22:52 24.46604 -82.14140 5791 ft 246 kts 62°
2026-05-06 22:52 24.47418 -82.12537 5481 ft 236 kts 62°
2026-05-06 22:52 24.48199 -82.10997 5205 ft 226 kts 62°
2026-05-06 22:52 24.48948 -82.09518 4896 ft 218 kts 62°
2026-05-06 22:53 24.49670 -82.08094 4620 ft 210 kts 61°
2026-05-06 22:53 24.50364 -82.06723 4366 ft 201 kts 61°
2026-05-06 22:53 24.51031 -82.05409 4117 ft 195 kts 61°
2026-05-06 22:53 24.51683 -82.04122 3869 ft 191 kts 61°
2026-05-06 22:54 24.52319 -82.02866 3645 ft 185 kts 60°
2026-05-06 22:54 24.52934 -82.01651 3497 ft 180 kts 60°
2026-05-06 22:54 24.53548 -82.00438 3356 ft 183 kts 60°
2026-05-06 22:54 24.54172 -81.99209 3164 ft 185 kts 60°
2026-05-06 22:55 24.54764 -81.97967 2965 ft 181 kts 71°
2026-05-06 22:55 24.54903 -81.96622 2945 ft 178 kts 90°
2026-05-06 22:55 24.54898 -81.95240 2907 ft 185 kts 88°
2026-05-06 22:55 24.54964 -81.93828 2725 ft 185 kts 85°
2026-05-06 22:56 24.55057 -81.92438 2501 ft 180 kts 85°
2026-05-06 22:56 24.55146 -81.91083 2295 ft 175 kts 85°
2026-05-06 22:56 24.55230 -81.89756 2104 ft 175 kts 85°
2026-05-06 22:56 24.55314 -81.88419 1938 ft 176 kts 85°
2026-05-06 22:57 24.55399 -81.87073 1758 ft 176 kts 86°
2026-05-06 22:57 24.55482 -81.85740 1567 ft 174 kts 86°
2026-05-06 22:57 24.55535 -81.84428 1451 ft 168 kts 88°
2026-05-06 22:57 24.55549 -81.83147 1156 ft 167 kts 90°
2026-05-06 22:58 24.55558 -81.81892 912 ft 162 kts 90°
2026-05-06 22:58 24.55569 -81.80654 703 ft 163 kts 90°
2026-05-06 22:58 24.55578 -81.79407 492 ft 162 kts 89°
2026-05-06 22:58 24.55596 -81.78183 264 ft 159 kts 92°
2026-05-06 22:59 24.55602 -81.77003 55 ft 149 kts 91°
2026-05-06 22:59 24.55608 -81.76016 9 ft 94 kts 89°
2026-05-06 22:59 24.55618 -81.75557 9 ft 30 kts 89°
2026-05-06 22:59 24.55616 -81.75391 9 ft 16 kts 90°
2026-05-06 23:00 24.55611 -81.75261 9 ft 9 kts 114°
2026-05-06 23:00 24.55556 -81.75245 9 ft 7 kts 195°
2026-05-06 23:00 24.55535 -81.75281 9 ft 5 kts 266°
2026-05-06 23:00 24.55532 -81.75351 9 ft 10 kts 260°
2026-05-06 23:01 24.55475 -81.75382 9 ft 9 kts 182°
2026-05-06 23:01 24.55415 -81.75398 9 ft 5 kts 238°
2026-05-06 23:01 24.55410 -81.75418 9 ft 0 kts 265°
2026-05-06 23:01 24.55410 -81.75420 9 ft 0 kts 272°